NSS-12

Last updated on Mon Sep 14 2026 00:02:57 GMT+0000 (Coordinated Universal Time)

1 36032U 09058A 26256.65520770 .00000061 00000+0 00000+0 0 9994 2 36032 0.0201 118.2966 0003263 14.3973 152.8277 1.00272888 61806
UTC large
Height (km)
Speed (km/s)
/
Latitude / Longitude
Inclination (degrees)
Orbital Period (minutes)
Azimuth
Elevation
Range (km)
Doppler Factor

Next 0 passes for location: London (51.5072 / 0.1276)

No passes found over London.
NSS-12